Location: Fort Worth, Tx
(32.7431°N, 97.3695°W)
Time: 03:49:04
(UTC-04:00)

Vanguard 3 - Pass Details

Date: 27 February 2024
Orbit: 510 x 3234 km, 33.3° (Epoch: 24 April)

Event Time Altitude Azimuth Distance (km) Brightness Sun altitude
Rises 01:38:52 0° 281° (W) 7,198 12.1 -65.8°
Reaches altitude 10° 01:43:52 10° 281° (W) 6,100 11.6 -65.8°
Enters shadow 01:47:10 18° 280° (W) 5,358 11.2 -65.7°
